DELTA 1 DEB, 3811

Orbit data source: Space-Track

DELTA 1 DEB, 3811 is space debris in SSO originally from a launch on Sun, 15 Dec 1968 UTC launched from the Air Force Western Test Range (AFWTR). Debris objects in space refer to the collection of defunct objects orbiting the Earth. Examples of debris include non-operational satellites, rocket bodies, and fragments generated from explosions, collisions, or faulty payload assembly.

Loading next visibility...
Identifier
3811, 1968-114C
Orbit
SSO
Country
Flag of USUS
Related business
Manufacturer
Unknown
Mission
Spacecraft
Bus & Motor
Unknown
Mass
Unknown
Launch date (UTC)
1968-12-15 (57 years ago)
Launch vehicle
Unknown
Launch site
Air Force Western Test Range (AFWTR)
Object type
Payload
Rocket body
Debris
Shape & HBR
Unknown shape, 0.1 m
Radar Cross Section
Small (<0.1 m²)

Expand to show TLE details & history
Last TLE update: 2 days ago

TLE from 2 days ago
0 DELTA 1 DEB
1 03811U 68114C   26035.40608112 -.00000003  00000-0  20204-3 0  9996
2 03811 101.8933 329.7365 0137777  68.7204  48.7459 12.76382605661284
Epoch: 2026-02-04T09:44Z
TLE epoch observation values (Epoch: 2026-02-04T09:44:45.408Z)
Latitude
59.25303°
Longitude
-110.39949°
Altitude
1,296.468 km
Speed
7.246 km/s
True Right ascension
11h 21m 27s
True Declination
59° 06' 44"
Sunlit
Object was in full shadow at epoch
Visualization orbit readout
Latitude
Unknown
Longitude
Unknown
Altitude
Unknown
Speed
Unknown
Apparent Right ascension
Unknown
Apparent Declination
Unknown
Sunlit
N/A
Visualization observer readout
Local Sidereal Time
13:06:26
Azimuth
Unknown
Elevation
Unknown
Doppler factor
Unknown
Orbital elements
Apogee altitude
1,460.094 km
Perigee altitude
1,247.044 km
Semi-major axis
7,731.706 km
Eccentricity
0.01378
Inclination
101.8933°
RAAN
329.7365°
Arg. of periapsis
68.7204°
True anomaly
49.94638°
Mean anomaly
48.7459°
Eccentric anomaly
49.34478°
Mean motion
3.19249 °/min
Orbital period
112.76 mins
BSTAR
0.00020204
Loading maneuver chart data...
Computing Atmospheric mass density...
Loading historical data...
Loading historical data...
Loading historical data...
Loading historical data...
Loading historical data...
Loading historical data...
Loading historical data...

Documentation

Showing up to 5 results
|